Location: Altp�lla
(48.6167°N, 15.4667°E)
Time: 13:42:52
(UTC+00:00)

Daily predictions for brighter satellites

Satellite Brightness Start Highest point End
(mag) Time Altitude Azimuth Time Altitude Azimuth Time Altitude Azimuth
USA 215 3.9 15:44:09 10° ENE 15:50:14 43° N 15:56:18 10° WNW
Cosmos 1867 4.0 15:47:02 10° SW 15:52:28 66° NW 15:57:57 10° NE
Cosmos 2221 2.5 15:48:11 10° S 15:52:30 80° E 15:56:53 10° NNE
Meteor 2-10 Rocket 4.0 15:47:38 10° SSW 15:52:36 64° WNW 15:57:42 10° N
Cosmos 1238 Rocket 2.7 15:50:24 10° N 15:54:42 88° E 15:58:13 10° S
Meteor 2-2 Rocket 4.4 15:49:42 10° S 15:55:23 57° E 16:00:59 10° NNE
USA 229 DEB 3.8 15:51:41 10° SSW 15:58:10 65° SE 16:04:58 10° NE
USA 229 3.8 15:51:48 10° SSW 15:58:16 65° SE 16:05:03 10° NE
Cosmos 1538 Rocket 4.1 15:53:11 10° S 15:58:22 61° ESE 16:03:39 10° NNE
Cosmos 2369 Rocket 4.4 15:56:06 10° WNW 15:59:39 17° NW 16:03:12 10° N
Cosmos 2219 3.9 15:56:32 10° NNW 16:02:05 61° WSW 16:07:36 10° S
NOSS 3-1 (C) 3.5 15:56:39 10° SSW 16:02:05 61° ESE 16:08:24 10° NE
NOSS 3-1 (A) 3.8 15:58:26 10° S 16:03:36 41° ESE 16:09:29 10° NE
CORIOLIS 4.2 16:00:13 10° SSE 16:05:32 59° ENE 16:10:53 10° N
Feng Yun 1-1 Rocket 4.2 16:00:07 10° SSE 16:05:39 74° ENE 16:11:07 10° NNW
YAOGAN 1 3.9 16:07:17 10° ESE 16:10:19 19° ENE 16:13:22 10° NNE
BREEZE-M DEB (TANK) 2.3 16:06:22 10° W 16:10:48 72° N 16:12:41 15° E
ASTEX 1 3.9 16:06:23 10° N 16:11:22 66° W 16:16:19 10° SSW
SeaSat 1 2.8 16:07:54 10° ESE 16:12:34 44° NE 16:17:14 10° NNW
Cosmos 1980 Rocket 3.4 16:09:08 10° SSE 16:13:17 21° E 16:16:57 12° ENE
Cosmos 2297 Rocket 2.6 16:11:17 10° NNW 16:16:55 69° WSW 16:22:32 10° SSE
Cosmos 2227 Rocket 2.5 16:11:42 10° NNW 16:17:22 74° WSW 16:23:00 10° SSE
ERBS 2.3 16:16:12 10° SW 16:19:28 63° SE 16:21:55 17° ENE
Envisat 3.2 16:16:04 10° SE 16:20:55 48° ENE 16:25:48 10° N
Cosmos 1869 3.3 16:26:06 10° S 16:30:04 83° WNW 16:34:01 10° N
SKYMED 2 4.4 16:27:26 10° NNE 16:31:18 30° E 16:35:07 10° SSE
CENTAUR R/B 4.1 16:25:28 10° NW 16:31:29 27° N 16:36:37 15° ENE
NOAA 12 4.0 16:27:44 10° SSE 16:33:03 74° ENE 16:38:23 10° N
Cosmos 2034 Rocket 4.1 16:27:50 10° N 16:34:04 54° ENE 16:40:18 10° SSE
Cosmos 2263 Rocket 3.1 16:30:15 10° NNW 16:34:58 27° NE 16:37:46 18° E
Cosmos 1805 Rocket 4.1 16:32:26 10° NNW 16:36:45 61° W 16:41:03 10° S
GEOS 3 Rocket 3.9 16:32:36 15° NE 16:36:50 51° SE 16:41:57 10° SSW
Cosmos 1633 2.4 16:33:36 10° N 16:37:17 83° E 16:40:55 10° S
H-2A R/B 3.2 16:34:54 10° S 16:38:42 65° WSW 16:42:30 10° NNW
Cosmos 2344 4.3 16:31:48 10° WSW 16:39:06 51° NNW 16:47:36 10° NE
Cosmos 1371 Rocket 4.1 16:35:10 10° NNW 16:40:16 51° ENE 16:45:18 10° SE
Cosmos 2369 3.7 16:35:47 10° SSW 16:41:22 63° ESE 16:46:45 11° NNE
NOSS 2-3 (C) 4.0 16:38:37 10° SSW 16:42:50 48° ESE 16:45:53 21° ENE
ATLAS 5 CENTAUR R/B 3.8 16:38:03 10° NW 16:43:29 40° WSW 16:49:35 10° S
Okean-O 2.6 16:39:37 10° SSE 16:44:03 87° WSW 16:48:32 10° NNW
Geosat 4.1 16:41:38 14° NE 16:45:54 54° ESE 16:50:49 10° SSW
Cosmos 1356 Rocket 3.7 16:42:05 10° SSW 16:46:15 69° WNW 16:50:31 10° N
Cosmos 2082 4.0 16:41:59 10° NNW 16:47:36 68° WSW 16:53:09 10° SSE
FengYun 1-2 T 4.2 16:42:23 10° SSE 16:47:49 64° ENE 16:53:15 10° N
Meteor 2-20 Rocket 4.5 16:42:55 10° S 16:49:03 87° W 16:55:16 10° N
Cosmos 1697 Rocket 2.6 16:45:32 10° SSW 16:51:09 70° ESE 16:56:07 14° NNE
COBE Rocket 3.8 16:46:26 10° NNE 16:51:15 90° ESE 16:55:55 10° SSW
Cosmos 1634 Rocket 4.5 16:46:41 10° N 16:52:17 34° ENE 16:57:50 10° SE
ATLAS 3B R/B 4.0 16:47:19 10° NW 16:52:26 23° N 16:55:32 17° NE
SMAP 4.3 16:49:40 10° S 16:54:07 44° W 16:58:36 10° NNW
Cosmos 2112 Rocket 4.0 16:50:45 10° S 16:55:49 56° ESE 16:59:45 17° NNE
Cosmos 2360 4.4 16:51:30 10° S 16:57:00 52° ESE 17:00:48 20° NE
Cosmos 2278 3.7 16:54:14 10° SSW 16:59:50 66° ESE 17:04:10 18° NE
Cosmos 724 4.3 16:55:17 10° NW 17:01:10 81° SW 17:06:56 10° SSE
CZ-4 R/B 1.3 16:57:50 10° SSE 17:01:57 68° ENE 17:05:59 10° N
Cosmos 1680 Rocket 3.4 16:56:47 10° SSW 17:01:58 73° ESE 17:06:20 15° NNE
Tsikada Rocket 4.1 16:56:06 10° SSE 17:02:13 52° E 17:08:25 10° NNE
Lacrosse 4 Rocket 1.5 16:58:49 10° SW 17:02:53 70° NW 17:05:17 23° NNE
Cosmos 1633 Rocket 3.3 16:59:33 10° NNW 17:03:58 72° W 17:08:22 10° S
Ariane Rocket 3.7 17:03:33 31° ENE 17:04:00 31° ENE 17:08:27 10° N
Cosmos 2228 Rocket 4.4 17:03:14 10° SSE 17:05:29 24° SE 17:05:29 24° SE
Cosmos 1656 4.2 17:03:33 10° SW 17:08:59 55° WNW 17:14:15 11° NNE
Cosmos 1939 Rocket 3.8 17:10:47 31° NNE 17:10:47 31° NNE 17:13:27 10° N
CZ-4 R/B 4.4 17:06:33 10° SSE 17:10:41 89° NE 17:14:52 10° NNW
YAOGAN 6 2.5 17:09:04 10° S 17:12:33 81° WSW 17:16:05 10° NNW
Cosmos 1151 Rocket 2.9 17:09:14 10° S 17:13:35 78° E 17:17:33 13° NNE
Cosmos 1844 Rocket 4.3 17:13:44 10° N 17:16:32 17° NNE 17:16:32 17° NNE
Cosmos 2227 4.2 17:12:27 10° NNW 17:18:13 64° ENE 17:21:43 24° SE
Cosmos 1933 Rocket 3.4 17:14:57 10° N 17:19:18 69° E 17:23:38 10° SSE
COSMO-SKYMED 1 2.5 17:15:32 13° NNE 17:19:28 89° ESE 17:23:48 10° SSW
Cosmos 1328 Rocket 3.5 17:15:43 10° S 17:20:08 84° W 17:24:32 10° N
Cosmos 1933 3.8 17:18:51 10° S 17:21:56 44° SE 17:21:56 44° SE
Cosmos 1515 Rocket 3.4 17:18:55 10° S 17:23:16 67° E 17:24:35 43° NNE
APEX 3.6 17:24:01 10° SSW 17:26:26 42° SSW 17:26:26 42° SSW
NOAA 11 4.1 17:22:38 10° SSE 17:28:00 67° ENE 17:33:25 10° N
CSL-04 Debris 4.2 17:23:31 10° SSE 17:29:01 86° WSW 17:34:34 10° NNW
Timation 1 Rocket 4.4 17:24:46 10° NNW 17:30:41 57° NE 17:32:14 45° ESE
Cosmos 1624 Rocket 4.2 17:25:45 10° NNW 17:31:06 75° WSW 17:36:25 10° SSE
Cosmos 2056 Rocket 3.6 17:26:49 10° NNW 17:31:57 76° WSW 17:37:07 10° SSE
USA 215 3.4 17:30:23 39° ENE 17:32:38 57° NNE 17:39:00 10° NW
H-2A R/B 4.0 17:36:02 15° NNE 17:36:02 15° NNE 17:37:09 10° N
USA 116 4.2 17:35:54 27° NNE 17:38:31 89° E 17:43:40 10° SSW
Meteor 1-25 Rocket 4.1 17:32:55 10° N 17:38:37 72° ENE 17:44:07 11° SSE
Meteor 1-20 Rocket 4.1 17:34:57 10° N 17:40:51 74° ENE 17:46:27 11° SSE
CSL-04 Rocket 3.9 17:37:22 10° S 17:42:41 68° WSW 17:47:59 10° NNW
BREEZE-M DEB (TANK) 3.3 17:39:33 10° WSW 17:43:08 36° SSW 17:43:08 36° SSW
NOSS 2-3 (E) 4.2 17:41:24 10° WSW 17:45:51 60° NW 17:47:11 44° NNE
YAOGAN 1 3.2 17:41:48 10° S 17:46:03 55° W 17:50:19 10° NNW
SeaSat 1 4.1 17:45:43 10° S 17:50:09 34° WSW 17:54:38 10° NW
NOSS 3-1 (A) 4.1 17:48:47 10° WSW 17:54:22 49° NW 17:57:20 29° NNE
SL-16 R/B 3.8 17:49:09 10° S 17:50:59 20° SSE 17:50:59 20° SSE
NOSS 2-3 (D) 4.3 17:51:06 10° WSW 17:55:31 55° NW 17:56:24 48° N
Cosmos 1980 Rocket 2.4 17:51:03 10° SW 17:56:42 71° WNW 17:58:45 40° NNE
IRS-1A Rocket 4.1 17:56:41 71° ESE 17:57:10 76° ENE 18:02:57 10° NNW
DMSP B5D1-3 4.4 18:00:37 88° SSW 18:00:37 88° SSW 18:05:43 10° SSW
Cosmos 2322 Rocket 4.3 17:57:10 10° S 17:57:52 13° S 17:57:52 13° S
Meteor 1-14 Rocket 4.2 18:01:16 10° N 18:07:18 85° ENE 18:07:34 82° SE
Cosmos 1420 Rocket 4.2 18:09:10 10° NNW 18:13:54 66° WNW 18:13:54 66° WNW
Cosmos 2263 Rocket 2.4 18:13:49 10° NNW 18:19:21 64° WSW 18:19:31 64° WSW
Cosmos 1452 Rocket 4.1 18:15:19 10° NNW 18:19:20 52° NW 18:19:20 52° NW
CENTAUR R/B 3.5 18:16:48 10° NW 18:23:48 46° NNE 18:23:48 46° NNE
USA 238 DEB 3.9 18:33:45 10° NW 18:40:01 70° NNW 18:40:01 70° NNW
USA 238 3.9 18:33:51 10° NW 18:40:07 69° NNW 18:40:07 69° NNW
Lacrosse 4 Rocket 4.2 18:40:13 10° WNW 18:41:38 13° NW 18:41:38 13° NW
Ariane Rocket 4.3 18:43:45 37° WNW 18:43:45 37° WNW 18:47:39 10° NNW
ATLAS 3B R/B 3.7 18:38:35 10° NW 18:42:47 34° N 18:42:47 34° N
NOSS 3-2 (A) 4.0 18:38:18 10° NW 18:44:50 71° NNW 18:44:50 71° NNW
USA 215 4.1 19:17:45 44° WNW 19:17:45 44° WNW 19:22:08 10° WNW
